Weather in Kinelakhta

Russia / Republic of Karelia     61°23′15″N   32°35′30″E
В апреле 2022 года жителям России запретили посещать сайт meteo.paraplan.net по решению Генеральной прокуратуры. Аудитория сайта уменьшилась в 10 раз. Владельцы сайта не видят смысла в поддержке погодного сервера в таких условиях. Сайт будет закрыт в октябре.
temp.,
°C
wind,
m/s
gust,
m/s
humid.,
%
clouds,
%
prec.,
mm/h
press.,
hPa
HPBL,
m
4 october, tue
tue400:00+5ne71693100 5.8 1003716
03:00+7ene51394100 9.6 1003623
06:00+8ese399758 0.1 1004440
09:00+7ese3109114 0.1 1005610
12:00+10ese4108493 0.0 1005911
15:00+11ese4985100 0.3 1006735
18:00+9e398999 0.4 1007509
21:00+8ene289555 0.6 1008291
5 october, wed
wed500:00+8se1296100 0.0 100893
03:00+7sw1298100 0.6 1008149
06:00+7s259699 0.5 1009288
09:00+7s129328 0.5 1010186
12:00+9ssw228199 0.0 1010627
15:00+9sw2483100 0.1 1011525
18:00+6ssw229253 0.0 101246
21:00+5ssw249435 0.0 101296
6 october, thu
thu600:00+4sse2697100 0.0 1012137
03:00+5sse31096100 0.0 1011289
06:00+5sse4129598 0.0 1009409
09:00+6sse51495100 0.1 1007527
12:00+8s51497100 0.1 1006675
15:00+10ssw61397100 0.3 1003746
18:00+11sw51397100 5.4 1002755
21:00+11sw4119394 7.3 1001601
7 october, fri
fri700:00+10w5118966 0.9 1003895
03:00+9wsw5129187 1.0 1004747
06:00+9w41089100 0.1 1005971
09:00+9wsw4119195 0.1 1006647
12:00+10wsw6128492 0.6 10081084
15:00+11wsw6117515 0.7 10091197
18:00+9wsw412816 0.0 1011665
21:00+9sw41292100 0.0 1011606
8 october, sat
sat800:00+10sw51387100 0.0 1011912
03:00+10sw61494100 2.1 1009931
06:00+10sw61289100 1.1 1008927
09:00+9ssw61387100 1.1 1007857
12:00+10ssw6138296 0.0 1006851
15:00+11ssw6137757 0.0 1004960
18:00+10ssw71479100 0.0 10021054
21:00+10sw81683100 0.6 10001401